Regional Weather Roundup
Issued by NWS

Home | Current Version | Previous Version | Graphics & Text | Print | Product List | Glossary Off
Versions: 1 2 3 4 5 6 7 8 9 10 11 12 13 14 15 16 17 18 19 20 21 22 23 24 25 26 27 28 29 30 31 32 33 34 35 36 37 38 39 40 41 42 43 44 45 46 47 48 49 50

000
ASUS43 KDMX 172107
RWRIA

WEATHER ROUNDUP FOR IOWA
NATIONAL WEATHER SERVICE DES MOINES IA
300 PM CST WED DEC 17 2014

NOTE: "FAIR" INDICATES FEW OR NO CLOUDS BELOW 12,000 FEET WITH NO
SIGNIFICANT WEATHER AND/OR OBSTRUCTIONS TO VISIBILITY.

* - THESE STATIONS ARE NOT NWS STATIONS...THUS NOT UNDER NWS
QUALITY CONTROL.  THEY ALSO DO NOT REPORT WEATHER SUCH
AS PRECIPITATION OR FOG.

IAZ001>003-012>014-020>022-031>034-043>046-172200-
   NORTHWEST IOWA

CITY           SKY/WX    TMP DP  RH WIND       PRES   REMARKS
CARROLL *      SUNNY     25  16  68 CALM      30.27S
CHEROKEE *     SUNNY     25  18  74 N6        30.26S WCI  18
DENISON *      SUNNY     27  16  63 CALM      30.25S
LE MARS *      SUNNY     23  16  74 N6        30.28S WCI  16
ORANGE CITY *  SUNNY     23  14  68 CALM      30.25S
SHELDON *      SUNNY     21  16  79 N7        30.24F WCI  13
SIOUX CITY     MOSUNNY   26  15  63 CALM      30.28F
SPENCER        MOSUNNY   26  14  60 CALM      30.26F
STORM LAKE *   SUNNY     23  16  74 N6        30.25S WCI  16
$$

IAZ055>058-069>071-079>083-090>094-172200-
   SOUTHWEST IOWA

CITY           SKY/WX    TMP DP  RH WIND       PRES   REMARKS
ATLANTIC *     SUNNY     28  18  64 CALM      30.26F
AUDUBON *      SUNNY     28  16  59 CALM      30.27S
CLARINDA *     CLOUDY    28  18  64 NE5       30.28F WCI  23
COUNCIL BLFS * PTSUNNY   27  16  63 VRB5      30.24F WCI  21
CRESTON *      SUNNY     28  18  64 CALM      30.26F
HARLAN  *      SUNNY     28  18  64 CALM      30.30F
LAMONI         MOSUNNY   27  16  63 W3        30.26F
RED OAK *      PTSUNNY   28  18  64 CALM      30.27F
SHENANDOAH *   CLOUDY    27  19  74 NE7       30.28F WCI  19
$$

IAZ047>049-059>061-072>074-084-172200-
   CENTRAL IOWA

CITY           SKY/WX    TMP DP  RH WIND       PRES   REMARKS
AMES           SUNNY     25  15  66 NW6       30.28R WCI  18
ANKENY *       SUNNY     25  16  68 VRB7      30.29R WCI  17
CHARITON *     SUNNY     28  16  59 CALM      30.28S
DES MOINES     PTSUNNY   30  14  51 N6        30.28S WCI  24
GRINNELL*      SUNNY     27  18  69 W6        30.27S WCI  20
KNOXVILLE *    SUNNY     28  14  54 N5        30.26F WCI  23
MARSHALLTOWN   SUNNY     25  15  66 NW6       30.26S WCI  18
PELLA *        SUNNY     28  18  64 NW5       30.29S WCI  23
PERRY *          N/A     27  18  69 CALM      30.28S
$$

IAZ004>006-015-016-023>025-035-036-172200-
   NORTH CENTRAL IOWA

CITY           SKY/WX    TMP DP  RH WIND       PRES   REMARKS
ALGONA *       SUNNY     23  18  80 VRB6      30.27S WCI  16
CLARION *      PTSUNNY   23  19  86 CALM      30.27S
ESTHERVILLE    MOSUNNY   21  14  74 N7        30.26R WCI  12
FORT DODGE *   SUNNY     25  14  63 N3        30.28S
MASON CITY     SUNNY     22  15  75 N8        30.27R WCI  12
FOREST CITY *  SUNNY     23  14  68 NW6       30.26R WCI  16
IOWA FALLS *     N/A     25  18  74 NW5       30.28R WCI  19
$$

IAZ007>011-017>019-026>030-037>042-050>054-066-172200-
   NORTHEAST IOWA

CITY           SKY/WX    TMP DP  RH WIND       PRES   REMARKS
CEDAR RAPIDS     N/A     26  15  63 NW12      30.25S WCI  16
CHARLES CITY * SUNNY     23  18  80 N9        30.25S WCI  13
CLINTON *      MOSUNNY   27  16  63 NW8       30.28R WCI  18
DECORAH *      SUNNY     23  14  68 N10       30.22F WCI  12
DUBUQUE        SUNNY     23  14  68 N8        30.23R WCI  14
MONTICELLO *   SUNNY     27  16  63 NW12      30.25S WCI  16
OELWEIN *      SUNNY     23  16  74 NW8G15    30.25S WCI  14
WATERLOO       SUNNY     24  14  65 NW12      30.27R WCI  13
$$

IAZ064-065-067-068-078-172200-
   EAST CENTRAL IOWA

CITY           SKY/WX    TMP DP  RH WIND       PRES   REMARKS
DAVENPORT      SUNNY     26  15  63 NW12      30.26R WCI  16
IOWA CITY      SUNNY     27  16  63 NW12      30.28S WCI  17
MT. PLEASANT * SUNNY     28  18  64 W7        30.28S WCI  21
MUSCATINE *    SUNNY     30  16  55 NW8       30.29S WCI  23
QUAD CITIES    SUNNY     29  15  56 NW12      30.27R WCI  19
$$

IAZ062-063-075>077-085>089-095>099-172200-
   SOUTHEAST IOWA

CITY           SKY/WX    TMP DP  RH WIND       PRES   REMARKS
BURLINGTON     FLURRIES  30  19  63 NW7       30.27S WCI  23
FAIRFIELD *    SUNNY     28  18  64 NW9       30.28S WCI  20
FORT MADISON * MOSUNNY   30  21  69 W6        30.29S WCI  24
KEOKUK *       SUNNY     30  19  64 CALM      30.29R
OSKALOOSA *      N/A     27  18  69 NW6       30.28S WCI  20
CENTERVILLE *  SUNNY     30  18  59 CALM      30.29S
OTTUMWA        SUNNY     29  16  58 N8        30.28S WCI  21
WASHINGTON *   SUNNY     28  19  69 W8        30.28S WCI  20
$$

ABBREVIATIONS USED IN REMARKS
   TC - TEMPERATURES IN CELSIUS
  WCI - WIND CHILL INDEX
   HX - HEAT INDEX
  VSB - VISIBILITY
$$




USA.gov is the U.S. government's official web portal to all federal, state and local government web resources and services.